Back to catalog

STARLINK-32193

AliveCommunicationsVLEO
NORAD 60428·PAYLOAD·🇺🇸 United States

Launched Aug 12, 2024 from Cape Canaveral Space Force Station

Loading…

Next Passes (next 24 hours)

TLE

FreshSource: CelesTrak SupGP

Epoch: Sep 14, 2026, 13:55 UTC

1 60428C 24144D   26257.58034722 -.00046136  00000+0 -13629-2 0  2579
2 60428  53.1595  57.1985 0001195  92.8593 324.1820 15.34417681    18

Track STARLINK-32193 in real time with AllMySat

Download on the App Store